Location: Al Mulaqqa?ah
(24.1833°N, 32.8833°E)
Time: 18:15:17
(UTC+00:00)

In-Cosmos 22 - Pass Details

Date: 26 September 2021
Orbit: 784 x 877 km, 81.2° (Epoch: 17 October)

Event Time Altitude Azimuth Distance (km) Brightness Sun altitude
Rises 16:30:09 0° 357° (N) 3,274 7.4 -12.1°
Reaches altitude 10° 16:32:32 10° 360° (N) 2,347 6.6 -12.7°
Maximum altitude 16:37:47 67° 83° (E) 856 4.0 -13.9°
Drops below altitude 10° 16:43:06 10° 166° (SSE) 2,377 6.3 -15.1°
Sets 16:45:31 0° 168° (SSE) 3,318 7.1 -15.6°
